Location: Exeidioux
(45.6312°N, 1.6819°E)
Time: 07:42:38
(UTC+00:00)

Resurs 01 Rocket - Pass Details

Date: 03 March 2021
Orbit: 635 x 643 km, 98.0° (Epoch: 10 April)

Event Time Altitude Azimuth Distance (km) Brightness Sun altitude
Exits shadow 19:12:41 16° 46° (NE) 1,685 3.4 -16.4°
Drops below altitude 10° 19:14:31 10° 23° (NNE) 2,033 4.1 -16.8°
Sets 19:17:24 0° 3° (N) 2,948 5.1 -17.3°
